Карточка аэропорта UASS

Внимание!
Информация на этой странице в стадии наполнения.
Если вы не увидели какой-то информации, или заметили неточность - пожалуйста сообщите нам!
Спасибо!
Команда RU-STAFF
Название аэропортаСемей
Название аэропорта (англ.)Semey
Превышение764 ft. (232.9 m.)
Координаты50°21.018', 80°13.776'
Высота перехода10000ft
Эшелон переходаFL120, QNH<733:FL130
Коды ответчика7254-7257, 0674-0677
Зона ОрВДАлматы РПИ (UAAA)
Данные METARUASS 220730Z 30004MPS 270V340 9999 BKN043CB 27/15 Q1006 NOSIG RMK QFE736/0982
Проноз погоды (TAF)UASS 220458Z 2206/2215 27006G11MPS 9999 SCT040 BKN100 TEMPO 2206/2212 28009G14MPS 3100 -TSRA BKN030CB
NOTAMshow/hide NOTAM
AWOS   TABLE

Информация о ВПП


Диспетчерские позиции




Спутниковое изображение